GEFSMW_prec_meanprecacc_012.txt.gz
Total_Precipitation_Accumulation
0.00 0.00 0.00 0.00 0.00 0.00 0.00 0.00 0.01 0.03 0.07 0.09 0.12 0.27 0.47 0.43 0.46 0.42 0.25 0.22 0.26 0.26 0.22 0.13 0.06 0.03 0.03 0.04 0.12 0.25 0.28 0.17 0.04 0.02 0.02 0.00 0.00 0.00 0.00 0.00 0.00 0.00 0.00
0.00 0.00 0.00 0.00 0.00 0.00 0.00 0.00 0.01 0.04 0.06 0.08 0.10 0.18 0.24 0.15 0.20 0.28 0.31 0.26 0.23 0.27 0.29 0.28 0.20 0.10 0.09 0.15 0.26 0.41 0.50 0.33 0.13 0.08 0.06 0.02 0.01 0.00 0.00 0.00 0.00 0.00 0.00
0.00 0.00 0.00 0.00 0.00 0.00 0.00 0.00 0.01 0.05 0.07 0.06 0.06 0.08 0.10 0.13 0.24 0.27 0.32 0.31 0.25 0.22 0.23 0.31 0.30 0.23 0.18 0.23 0.25 0.41 0.60 0.48 0.30 0.18 0.15 0.14 0.13 0.03 0.00 0.00 0.00 0.00 0.00
0.01 0.01 0.01 0.00 0.00 0.00 0.00 0.00 0.02 0.04 0.04 0.03 0.04 0.07 0.10 0.17 0.19 0.23 0.24 0.16 0.15 0.15 0.15 0.23 0.29 0.32 0.29 0.34 0.34 0.40 0.56 0.64 0.53 0.36 0.19 0.09 0.07 0.04 0.04 0.01 0.00 0.00 0.00
0.02 0.03 0.03 0.03 0.02 0.02 0.01 0.01 0.02 0.03 0.01 0.02 0.04 0.08 0.09 0.12 0.14 0.14 0.12 0.13 0.11 0.08 0.08 0.16 0.18 0.21 0.26 0.37 0.53 0.60 0.63 0.64 0.53 0.44 0.36 0.29 0.20 0.10 0.07 0.09 0.02 0.00 0.00
0.07 0.11 0.11 0.11 0.10 0.08 0.07 0.04 0.03 0.01 0.01 0.01 0.01 0.03 0.06 0.11 0.12 0.08 0.07 0.08 0.11 0.13 0.15 0.19 0.15 0.11 0.16 0.26 0.40 0.54 0.65 0.69 0.62 0.45 0.37 0.33 0.29 0.28 0.20 0.11 0.06 0.02 0.00
0.12 0.20 0.22 0.22 0.18 0.16 0.12 0.05 0.01 0.00 0.00 0.00 0.00 0.01 0.03 0.06 0.08 0.07 0.05 0.04 0.05 0.07 0.11 0.22 0.29 0.27 0.25 0.28 0.33 0.41 0.45 0.53 0.64 0.50 0.37 0.31 0.22 0.21 0.24 0.20 0.09 0.03 0.01
0.17 0.19 0.18 0.19 0.17 0.12 0.06 0.02 0.00 0.00 0.00 0.00 0.00 0.01 0.02 0.02 0.02 0.02 0.03 0.03 0.03 0.02 0.02 0.06 0.16 0.27 0.34 0.34 0.33 0.27 0.28 0.38 0.47 0.46 0.50 0.56 0.42 0.27 0.23 0.23 0.17 0.09 0.08
0.31 0.29 0.29 0.30 0.19 0.08 0.03 0.01 0.00 0.00 0.00 0.00 0.00 0.00 0.01 0.00 0.01 0.01 0.03 0.02 0.01 0.01 0.00 0.03 0.05 0.08 0.11 0.14 0.17 0.19 0.23 0.24 0.35 0.42 0.46 0.58 0.64 0.55 0.35 0.27 0.23 0.18 0.18
0.46 0.51 0.55 0.46 0.20 0.06 0.02 0.01 0.00 0.00 0.00 0.00 0.00 0.00 0.00 0.00 0.00 0.01 0.02 0.01 0.01 0.01 0.00 0.00 0.01 0.01 0.02 0.04 0.09 0.15 0.22 0.24 0.27 0.36 0.42 0.45 0.49 0.60 0.52 0.38 0.30 0.23 0.17
0.45 0.53 0.54 0.39 0.16 0.05 0.02 0.01 0.00 0.00 0.00 0.00 0.00 0.01 0.01 0.01 0.01 0.01 0.01 0.01 0.01 0.01 0.00 0.00 0.01 0.02 0.02 0.03 0.06 0.08 0.10 0.13 0.17 0.21 0.27 0.35 0.47 0.62 0.60 0.52 0.43 0.35 0.29
0.20 0.21 0.19 0.14 0.09 0.05 0.02 0.01 0.01 0.01 0.02 0.02 0.02 0.02 0.02 0.03 0.02 0.02 0.01 0.01 0.00 0.00 0.01 0.02 0.02 0.01 0.03 0.04 0.07 0.08 0.09 0.12 0.15 0.15 0.17 0.25 0.44 0.62 0.70 0.72 0.67 0.55 0.47
0.06 0.05 0.04 0.04 0.04 0.04 0.04 0.04 0.05 0.06 0.08 0.09 0.06 0.04 0.04 0.03 0.03 0.02 0.01 0.01 0.01 0.00 0.00 0.01 0.02 0.02 0.03 0.03 0.05 0.09 0.10 0.12 0.17 0.21 0.21 0.21 0.31 0.48 0.62 0.68 0.67 0.60 0.54
0.03 0.02 0.02 0.02 0.03 0.04 0.05 0.07 0.09 0.11 0.17 0.22 0.20 0.13 0.08 0.06 0.04 0.03 0.04 0.03 0.02 0.01 0.00 0.02 0.06 0.05 0.04 0.04 0.05 0.04 0.03 0.04 0.09 0.14 0.19 0.22 0.22 0.30 0.40 0.49 0.53 0.59 0.60
0.03 0.02 0.02 0.03 0.02 0.03 0.04 0.06 0.09 0.15 0.26 0.39 0.40 0.27 0.18 0.11 0.09 0.10 0.09 0.06 0.04 0.02 0.01 0.01 0.05 0.09 0.11 0.10 0.12 0.07 0.03 0.02 0.03 0.05 0.07 0.11 0.14 0.19 0.27 0.33 0.45 0.60 0.66
0.08 0.07 0.07 0.06 0.05 0.05 0.05 0.06 0.09 0.15 0.25 0.39 0.44 0.38 0.28 0.17 0.13 0.15 0.16 0.12 0.10 0.07 0.06 0.04 0.02 0.04 0.05 0.08 0.13 0.07 0.02 0.01 0.02 0.04 0.04 0.05 0.06 0.10 0.14 0.18 0.24 0.39 0.48
0.14 0.14 0.14 0.14 0.13 0.12 0.10 0.10 0.12 0.16 0.24 0.35 0.41 0.37 0.30 0.22 0.18 0.21 0.22 0.18 0.15 0.14 0.13 0.10 0.09 0.07 0.08 0.07 0.07 0.07 0.04 0.03 0.02 0.02 0.02 0.02 0.02 0.03 0.05 0.09 0.14 0.18 0.21
0.16 0.15 0.15 0.14 0.12 0.11 0.10 0.10 0.13 0.15 0.16 0.20 0.23 0.24 0.24 0.22 0.23 0.24 0.24 0.23 0.21 0.20 0.19 0.24 0.29 0.27 0.17 0.10 0.09 0.08 0.04 0.02 0.02 0.01 0.01 0.01 0.02 0.02 0.03 0.05 0.07 0.11 0.17
0.09 0.08 0.07 0.06 0.04 0.04 0.04 0.04 0.04 0.05 0.05 0.06 0.08 0.10 0.11 0.13 0.16 0.17 0.19 0.27 0.30 0.30 0.33 0.43 0.48 0.39 0.24 0.16 0.17 0.13 0.06 0.03 0.02 0.03 0.03 0.02 0.02 0.03 0.05 0.06 0.06 0.10 0.18
0.02 0.02 0.01 0.01 0.01 0.00 0.00 0.00 0.00 0.00 0.00 0.00 0.00 0.01 0.01 0.02 0.05 0.08 0.10 0.16 0.22 0.28 0.35 0.36 0.32 0.30 0.33 0.30 0.22 0.20 0.15 0.10 0.09 0.08 0.05 0.05 0.05 0.07 0.08 0.08 0.08 0.07 0.10
0.00 0.00 0.00 0.00 0.00 0.00 0.00 0.00 0.00 0.00 0.00 0.00 0.00 0.00 0.00 0.00 0.00 0.01 0.02 0.04 0.08 0.11 0.13 0.14 0.16 0.22 0.37 0.38 0.29 0.28 0.21 0.16 0.14 0.11 0.10 0.09 0.11 0.11 0.09 0.07 0.06 0.07 0.07
0.00 0.00 0.00 0.00 0.00 0.00 0.00 0.00 0.00 0.00 0.00 0.00 0.00 0.00 0.00 0.00 0.00 0.00 0.00 0.01 0.02 0.03 0.05 0.06 0.09 0.14 0.22 0.26 0.23 0.17 0.14 0.14 0.17 0.20 0.20 0.18 0.25 0.19 0.09 0.04 0.03 0.03 0.03
0.00 0.00 0.00 0.00 0.00 0.00 0.00 0.00 0.00 0.00 0.00 0.00 0.00 0.00 0.00 0.00 0.00 0.01 0.01 0.01 0.02 0.03 0.04 0.06 0.09 0.13 0.17 0.17 0.14 0.09 0.08 0.12 0.18 0.23 0.28 0.30 0.26 0.14 0.08 0.06 0.04 0.02 0.02
0.00 0.00 0.00 0.00 0.00 0.00 0.00 0.00 0.00 0.00 0.00 0.00 0.00 0.00 0.00 0.00 0.00 0.01 0.01 0.01 0.02 0.03 0.06 0.10 0.13 0.15 0.17 0.18 0.17 0.16 0.13 0.14 0.14 0.18 0.22 0.21 0.12 0.08 0.08 0.06 0.04 0.03 0.04
0.00 0.00 0.00 0.00 0.00 0.00 0.00 0.00 0.00 0.00 0.00 0.00 0.00 0.00 0.00 0.00 0.00 0.01 0.01 0.01 0.01 0.03 0.08 0.10 0.12 0.12 0.13 0.12 0.13 0.21 0.25 0.31 0.37 0.32 0.20 0.16 0.14 0.13 0.09 0.05 0.04 0.05 0.05
0.00 0.00 0.00 0.00 0.00 0.00 0.00 0.00 0.00 0.00 0.00 0.00 0.00 0.00 0.01 0.01 0.00 0.00 0.00 0.00 0.00 0.01 0.03 0.04 0.05 0.09 0.11 0.06 0.05 0.11 0.23 0.35 0.45 0.53 0.49 0.47 0.44 0.40 0.27 0.11 0.04 0.03 0.03

GEFSMW_prec_meanprecacc_018.txt.gz
Total_Precipitation_Accumulation
0.03 0.03 0.03 0.02 0.02 0.01 0.00 0.00 0.01 0.03 0.07 0.09 0.13 0.27 0.48 0.44 0.47 0.46 0.31 0.33 0.40 0.42 0.40 0.33 0.31 0.29 0.24 0.19 0.22 0.32 0.31 0.19 0.04 0.03 0.02 0.00 0.00 0.00 0.00 0.00 0.00 0.00 0.00
0.03 0.02 0.03 0.02 0.01 0.01 0.01 0.01 0.02 0.04 0.07 0.09 0.13 0.21 0.26 0.17 0.23 0.31 0.36 0.33 0.31 0.37 0.43 0.48 0.42 0.35 0.34 0.39 0.46 0.58 0.61 0.40 0.18 0.11 0.08 0.03 0.01 0.00 0.00 0.00 0.00 0.00 0.00
0.02 0.02 0.02 0.02 0.02 0.02 0.02 0.02 0.04 0.09 0.11 0.12 0.13 0.13 0.15 0.17 0.28 0.31 0.38 0.38 0.33 0.31 0.34 0.43 0.44 0.40 0.40 0.47 0.54 0.74 0.92 0.70 0.45 0.30 0.22 0.17 0.14 0.03 0.00 0.00 0.00 0.00 0.00
0.02 0.02 0.02 0.02 0.02 0.03 0.03 0.05 0.11 0.17 0.20 0.19 0.16 0.16 0.17 0.22 0.24 0.29 0.31 0.23 0.21 0.22 0.22 0.29 0.36 0.41 0.41 0.50 0.59 0.74 0.99 1.03 0.82 0.60 0.36 0.21 0.12 0.06 0.04 0.01 0.00 0.00 0.00
0.03 0.04 0.05 0.06 0.07 0.08 0.10 0.15 0.27 0.38 0.39 0.33 0.24 0.21 0.19 0.20 0.21 0.20 0.18 0.20 0.18 0.14 0.12 0.20 0.21 0.25 0.31 0.44 0.66 0.81 0.99 1.10 0.96 0.79 0.65 0.54 0.35 0.14 0.09 0.09 0.02 0.00 0.00
0.09 0.15 0.22 0.28 0.32 0.36 0.48 0.61 0.73 0.72 0.58 0.40 0.26 0.19 0.18 0.19 0.18 0.14 0.13 0.14 0.16 0.18 0.19 0.22 0.18 0.14 0.19 0.29 0.45 0.65 0.86 1.06 1.07 0.86 0.70 0.64 0.56 0.46 0.30 0.14 0.07 0.02 0.00
0.20 0.33 0.49 0.61 0.69 0.78 0.85 0.89 0.94 0.89 0.63 0.37 0.22 0.15 0.12 0.13 0.13 0.11 0.08 0.07 0.07 0.09 0.14 0.23 0.31 0.28 0.26 0.30 0.36 0.47 0.55 0.76 1.00 0.90 0.74 0.62 0.49 0.43 0.42 0.31 0.16 0.07 0.03
0.34 0.44 0.52 0.65 0.77 0.84 0.80 0.76 0.73 0.62 0.44 0.28 0.17 0.12 0.09 0.07 0.06 0.04 0.04 0.04 0.04 0.03 0.02 0.06 0.17 0.27 0.34 0.34 0.33 0.29 0.33 0.50 0.69 0.76 0.82 0.85 0.67 0.48 0.39 0.35 0.27 0.17 0.12
0.51 0.62 0.72 0.85 0.88 0.85 0.78 0.61 0.51 0.39 0.27 0.19 0.13 0.09 0.06 0.03 0.02 0.02 0.03 0.02 0.02 0.01 0.01 0.03 0.05 0.08 0.11 0.14 0.17 0.19 0.24 0.28 0.45 0.61 0.71 0.83 0.87 0.74 0.51 0.41 0.35 0.29 0.25
0.63 0.83 1.04 1.17 1.02 0.73 0.55 0.43 0.32 0.25 0.18 0.15 0.11 0.08 0.06 0.03 0.02 0.02 0.02 0.01 0.01 0.01 0.00 0.01 0.01 0.01 0.02 0.04 0.09 0.15 0.23 0.26 0.32 0.46 0.56 0.63 0.68 0.79 0.71 0.52 0.42 0.34 0.26
0.55 0.71 0.89 1.00 0.84 0.55 0.33 0.25 0.24 0.22 0.18 0.15 0.12 0.09 0.06 0.05 0.03 0.02 0.02 0.02 0.01 0.01 0.01 0.01 0.01 0.02 0.02 0.03 0.06 0.08 0.10 0.13 0.18 0.24 0.32 0.45 0.63 0.80 0.79 0.68 0.56 0.46 0.38
0.28 0.32 0.42 0.50 0.46 0.34 0.23 0.18 0.21 0.23 0.22 0.20 0.15 0.11 0.09 0.08 0.06 0.04 0.03 0.02 0.01 0.01 0.01 0.02 0.02 0.02 0.03 0.04 0.07 0.09 0.09 0.12 0.15 0.15 0.18 0.29 0.51 0.74 0.85 0.88 0.81 0.68 0.58
0.11 0.12 0.14 0.19 0.20 0.17 0.16 0.18 0.27 0.34 0.37 0.33 0.22 0.16 0.12 0.09 0.07 0.06 0.04 0.04 0.02 0.01 0.01 0.02 0.02 0.02 0.03 0.03 0.05 0.09 0.10 0.12 0.17 0.21 0.21 0.21 0.32 0.51 0.68 0.78 0.80 0.74 0.69
0.09 0.10 0.09 0.10 0.11 0.13 0.15 0.19 0.27 0.36 0.45 0.50 0.42 0.29 0.21 0.16 0.12 0.09 0.09 0.07 0.05 0.03 0.02 0.03 0.07 0.06 0.05 0.05 0.06 0.04 0.04 0.04 0.09 0.14 0.19 0.22 0.23 0.31 0.42 0.55 0.63 0.72 0.77
0.11 0.12 0.12 0.11 0.10 0.11 0.12 0.15 0.21 0.33 0.48 0.63 0.61 0.43 0.31 0.25 0.21 0.19 0.18 0.15 0.12 0.08 0.05 0.04 0.07 0.11 0.14 0.13 0.14 0.08 0.03 0.02 0.03 0.05 0.07 0.11 0.15 0.19 0.27 0.35 0.49 0.70 0.82
0.14 0.16 0.15 0.14 0.10 0.09 0.11 0.11 0.15 0.25 0.38 0.53 0.59 0.53 0.43 0.31 0.23 0.24 0.26 0.23 0.20 0.15 0.11 0.08 0.06 0.06 0.09 0.14 0.16 0.09 0.03 0.02 0.03 0.04 0.04 0.05 0.06 0.10 0.15 0.20 0.27 0.44 0.57
0.16 0.16 0.17 0.17 0.16 0.15 0.13 0.13 0.15 0.21 0.30 0.42 0.50 0.48 0.41 0.33 0.27 0.28 0.29 0.26 0.22 0.20 0.18 0.16 0.13 0.10 0.13 0.15 0.10 0.09 0.06 0.04 0.02 0.02 0.02 0.02 0.02 0.03 0.05 0.10 0.17 0.21 0.27
0.16 0.16 0.16 0.15 0.13 0.12 0.11 0.11 0.14 0.16 0.18 0.22 0.25 0.27 0.26 0.25 0.27 0.28 0.27 0.26 0.24 0.22 0.22 0.28 0.32 0.29 0.23 0.20 0.14 0.11 0.07 0.04 0.03 0.02 0.01 0.02 0.02 0.02 0.04 0.05 0.07 0.11 0.19
0.09 0.08 0.07 0.06 0.05 0.04 0.04 0.04 0.05 0.05 0.05 0.06 0.08 0.10 0.12 0.13 0.16 0.17 0.20 0.28 0.31 0.31 0.34 0.44 0.49 0.41 0.29 0.25 0.23 0.18 0.09 0.05 0.06 0.06 0.04 0.03 0.02 0.04 0.06 0.06 0.06 0.10 0.19
0.02 0.02 0.01 0.01 0.01 0.00 0.00 0.00 0.00 0.00 0.00 0.00 0.00 0.01 0.01 0.02 0.05 0.08 0.10 0.16 0.22 0.28 0.35 0.36 0.32 0.31 0.35 0.35 0.26 0.25 0.19 0.15 0.15 0.12 0.07 0.07 0.07 0.08 0.09 0.08 0.09 0.08 0.11
0.00 0.00 0.00 0.00 0.00 0.00 0.00 0.00 0.00 0.00 0.00 0.00 0.00 0.00 0.00 0.00 0.00 0.01 0.02 0.04 0.08 0.11 0.13 0.14 0.16 0.22 0.38 0.39 0.31 0.33 0.26 0.20 0.18 0.14 0.12 0.12 0.14 0.12 0.10 0.08 0.06 0.08 0.09
0.00 0.00 0.00 0.00 0.00 0.00 0.00 0.00 0.00 0.00 0.00 0.00 0.00 0.00 0.00 0.00 0.00 0.00 0.00 0.01 0.02 0.03 0.05 0.06 0.09 0.14 0.22 0.26 0.23 0.19 0.17 0.16 0.19 0.21 0.21 0.20 0.27 0.20 0.10 0.05 0.05 0.07 0.06
0.00 0.00 0.00 0.00 0.00 0.00 0.00 0.00 0.00 0.00 0.00 0.00 0.00 0.00 0.00 0.00 0.00 0.01 0.01 0.01 0.02 0.03 0.04 0.06 0.09 0.13 0.17 0.17 0.14 0.09 0.09 0.13 0.19 0.25 0.29 0.32 0.27 0.15 0.09 0.08 0.08 0.07 0.06
0.00 0.00 0.00 0.00 0.00 0.00 0.00 0.00 0.00 0.00 0.00 0.00 0.00 0.00 0.00 0.00 0.00 0.01 0.01 0.01 0.02 0.03 0.06 0.10 0.13 0.15 0.17 0.18 0.17 0.16 0.13 0.14 0.15 0.19 0.24 0.24 0.16 0.10 0.10 0.09 0.08 0.08 0.09
0.00 0.00 0.00 0.00 0.00 0.00 0.00 0.00 0.00 0.00 0.00 0.00 0.00 0.00 0.00 0.00 0.00 0.01 0.01 0.01 0.01 0.04 0.08 0.10 0.12 0.13 0.13 0.13 0.14 0.21 0.26 0.31 0.38 0.34 0.23 0.20 0.18 0.16 0.11 0.07 0.06 0.08 0.08
0.00 0.00 0.00 0.00 0.00 0.00 0.00 0.00 0.00 0.00 0.00 0.00 0.00 0.00 0.01 0.01 0.00 0.00 0.00 0.00 0.01 0.01 0.03 0.04 0.06 0.09 0.11 0.07 0.06 0.13 0.25 0.38 0.50 0.59 0.54 0.52 0.50 0.44 0.30 0.12 0.05 0.05 0.05

GEFSMW_prec_meanprecacc_024.txt.gz
Total_Precipitation_Accumulation
0.06 0.08 0.11 0.11 0.09 0.04 0.01 0.00 0.01 0.03 0.08 0.12 0.17 0.33 0.54 0.49 0.51 0.48 0.33 0.36 0.51 0.67 0.73 0.68 0.64 0.52 0.43 0.36 0.33 0.38 0.35 0.21 0.05 0.03 0.02 0.00 0.00 0.00 0.00 0.00 0.00 0.00 0.00
0.03 0.04 0.06 0.09 0.09 0.06 0.03 0.02 0.03 0.06 0.10 0.14 0.22 0.32 0.37 0.27 0.31 0.37 0.40 0.37 0.40 0.56 0.69 0.80 0.74 0.62 0.59 0.63 0.66 0.75 0.75 0.49 0.21 0.12 0.09 0.04 0.02 0.00 0.00 0.00 0.00 0.00 0.00
0.02 0.03 0.04 0.05 0.06 0.06 0.05 0.04 0.06 0.11 0.18 0.25 0.34 0.35 0.33 0.34 0.42 0.43 0.48 0.48 0.42 0.42 0.46 0.61 0.64 0.58 0.56 0.66 0.74 0.92 1.10 0.86 0.55 0.34 0.26 0.22 0.20 0.06 0.00 0.00 0.00 0.00 0.00
0.02 0.02 0.02 0.03 0.04 0.05 0.05 0.07 0.13 0.24 0.38 0.49 0.54 0.55 0.55 0.53 0.49 0.48 0.48 0.37 0.33 0.32 0.31 0.38 0.45 0.51 0.50 0.61 0.68 0.80 1.08 1.16 0.92 0.67 0.42 0.26 0.18 0.11 0.07 0.01 0.00 0.00 0.00
0.03 0.05 0.05 0.07 0.08 0.09 0.12 0.19 0.36 0.56 0.74 0.83 0.83 0.80 0.68 0.58 0.48 0.39 0.34 0.32 0.28 0.22 0.19 0.27 0.28 0.30 0.36 0.48 0.69 0.83 1.01 1.14 1.02 0.86 0.72 0.60 0.41 0.20 0.13 0.12 0.03 0.00 0.00
0.09 0.16 0.23 0.29 0.34 0.38 0.51 0.70 0.92 1.04 1.07 1.07 0.98 0.86 0.72 0.60 0.48 0.34 0.26 0.23 0.24 0.24 0.25 0.27 0.21 0.16 0.21 0.31 0.46 0.66 0.87 1.07 1.09 0.90 0.75 0.71 0.64 0.54 0.37 0.20 0.10 0.04 0.01
0.22 0.34 0.51 0.64 0.75 0.86 0.96 1.09 1.24 1.32 1.22 1.08 0.93 0.79 0.66 0.54 0.43 0.32 0.23 0.16 0.14 0.15 0.19 0.27 0.34 0.29 0.26 0.30 0.36 0.47 0.56 0.77 1.01 0.93 0.79 0.71 0.60 0.55 0.53 0.41 0.23 0.12 0.05
0.36 0.46 0.56 0.69 0.84 0.96 0.98 0.98 1.05 1.11 1.05 0.95 0.82 0.67 0.56 0.46 0.35 0.24 0.18 0.13 0.10 0.08 0.06 0.09 0.18 0.28 0.35 0.34 0.34 0.29 0.34 0.50 0.70 0.78 0.87 0.92 0.76 0.59 0.51 0.46 0.37 0.24 0.17
0.54 0.64 0.76 0.91 0.95 0.97 0.97 0.87 0.85 0.86 0.82 0.74 0.64 0.56 0.48 0.40 0.29 0.21 0.16 0.10 0.06 0.03 0.02 0.04 0.06 0.08 0.11 0.14 0.17 0.19 0.25 0.29 0.46 0.62 0.74 0.87 0.94 0.83 0.62 0.53 0.47 0.39 0.33
0.67 0.89 1.13 1.25 1.11 0.86 0.75 0.72 0.66 0.63 0.63 0.64 0.59 0.53 0.46 0.38 0.29 0.20 0.16 0.09 0.04 0.02 0.01 0.01 0.01 0.01 0.02 0.04 0.09 0.15 0.23 0.26 0.33 0.47 0.58 0.66 0.73 0.86 0.81 0.65 0.57 0.47 0.36
0.68 0.83 1.01 1.11 0.96 0.69 0.51 0.50 0.55 0.55 0.53 0.54 0.51 0.46 0.40 0.33 0.25 0.19 0.14 0.09 0.04 0.02 0.01 0.01 0.01 0.02 0.02 0.03 0.06 0.08 0.10 0.13 0.18 0.25 0.34 0.47 0.68 0.88 0.88 0.81 0.68 0.57 0.47
0.50 0.51 0.56 0.62 0.58 0.49 0.41 0.38 0.43 0.47 0.49 0.52 0.49 0.44 0.36 0.28 0.25 0.19 0.12 0.07 0.04 0.02 0.01 0.02 0.02 0.02 0.03 0.04 0.07 0.09 0.09 0.12 0.15 0.16 0.19 0.31 0.56 0.81 0.94 0.99 0.92 0.78 0.66
0.44 0.43 0.39 0.39 0.35 0.32 0.32 0.35 0.46 0.54 0.58 0.60 0.48 0.39 0.34 0.28 0.24 0.18 0.11 0.07 0.05 0.03 0.01 0.02 0.03 0.02 0.03 0.03 0.05 0.09 0.10 0.12 0.17 0.21 0.21 0.22 0.35 0.57 0.76 0.88 0.92 0.87 0.81
0.37 0.36 0.35 0.32 0.30 0.30 0.31 0.35 0.46 0.57 0.67 0.73 0.64 0.48 0.36 0.31 0.25 0.18 0.14 0.11 0.08 0.06 0.04 0.04 0.08 0.07 0.06 0.05 0.06 0.05 0.04 0.04 0.09 0.14 0.19 0.22 0.24 0.34 0.48 0.62 0.73 0.86 0.94
0.22 0.24 0.24 0.24 0.23 0.22 0.22 0.26 0.35 0.50 0.67 0.83 0.79 0.58 0.43 0.37 0.30 0.25 0.23 0.20 0.16 0.11 0.08 0.07 0.10 0.14 0.16 0.15 0.16 0.10 0.04 0.03 0.04 0.05 0.07 0.11 0.15 0.20 0.29 0.37 0.54 0.79 0.96
0.18 0.20 0.19 0.18 0.14 0.12 0.14 0.14 0.21 0.35 0.49 0.63 0.69 0.62 0.50 0.38 0.30 0.29 0.30 0.27 0.24 0.18 0.15 0.13 0.12 0.12 0.14 0.22 0.21 0.12 0.04 0.03 0.04 0.05 0.04 0.05 0.06 0.10 0.16 0.21 0.28 0.46 0.63
0.16 0.17 0.18 0.18 0.17 0.15 0.14 0.13 0.16 0.23 0.33 0.45 0.53 0.51 0.44 0.35 0.29 0.31 0.32 0.28 0.25 0.23 0.21 0.20 0.18 0.16 0.21 0.22 0.13 0.12 0.10 0.09 0.08 0.06 0.04 0.03 0.02 0.03 0.06 0.11 0.17 0.21 0.27
0.16 0.16 0.16 0.15 0.13 0.12 0.11 0.11 0.14 0.16 0.18 0.22 0.26 0.27 0.27 0.26 0.27 0.28 0.28 0.27 0.25 0.23 0.23 0.29 0.34 0.32 0.27 0.24 0.17 0.14 0.13 0.15 0.13 0.08 0.05 0.04 0.03 0.03 0.04 0.05 0.08 0.12 0.19
0.09 0.08 0.07 0.06 0.05 0.04 0.04 0.04 0.05 0.05 0.05 0.06 0.08 0.10 0.12 0.13 0.16 0.17 0.20 0.28 0.31 0.31 0.34 0.44 0.50 0.42 0.30 0.27 0.25 0.21 0.17 0.18 0.21 0.15 0.09 0.06 0.05 0.07 0.07 0.06 0.08 0.12 0.20
0.02 0.02 0.01 0.01 0.01 0.00 0.00 0.00 0.00 0.00 0.00 0.00 0.00 0.01 0.01 0.02 0.05 0.08 0.10 0.16 0.22 0.28 0.35 0.36 0.32 0.31 0.35 0.36 0.27 0.27 0.26 0.26 0.29 0.23 0.15 0.16 0.14 0.14 0.11 0.09 0.11 0.12 0.14
0.00 0.00 0.00 0.00 0.00 0.00 0.00 0.00 0.00 0.00 0.00 0.00 0.00 0.00 0.00 0.00 0.00 0.01 0.02 0.04 0.08 0.11 0.13 0.14 0.16 0.22 0.38 0.39 0.32 0.34 0.29 0.26 0.27 0.24 0.21 0.18 0.22 0.18 0.14 0.10 0.08 0.12 0.11
0.00 0.00 0.00 0.00 0.00 0.00 0.00 0.00 0.00 0.00 0.00 0.00 0.00 0.00 0.00 0.00 0.00 0.00 0.00 0.01 0.02 0.03 0.05 0.06 0.09 0.14 0.22 0.26 0.23 0.20 0.18 0.19 0.24 0.26 0.26 0.24 0.33 0.24 0.13 0.07 0.07 0.10 0.08
0.00 0.00 0.00 0.00 0.00 0.00 0.00 0.00 0.00 0.00 0.00 0.00 0.00 0.00 0.00 0.00 0.00 0.01 0.01 0.01 0.02 0.03 0.04 0.06 0.09 0.13 0.17 0.17 0.14 0.10 0.09 0.14 0.21 0.26 0.31 0.34 0.30 0.19 0.12 0.10 0.11 0.10 0.09
0.00 0.00 0.00 0.00 0.00 0.00 0.00 0.00 0.00 0.00 0.00 0.00 0.00 0.00 0.00 0.00 0.00 0.01 0.01 0.01 0.02 0.04 0.06 0.10 0.14 0.15 0.18 0.18 0.18 0.16 0.13 0.15 0.16 0.19 0.25 0.26 0.18 0.13 0.13 0.12 0.11 0.11 0.12
0.00 0.00 0.00 0.00 0.00 0.00 0.00 0.00 0.00 0.00 0.00 0.00 0.00 0.00 0.00 0.00 0.01 0.01 0.01 0.01 0.02 0.04 0.09 0.11 0.13 0.13 0.13 0.13 0.14 0.22 0.26 0.33 0.39 0.35 0.25 0.23 0.21 0.19 0.14 0.09 0.08 0.10 0.11
0.00 0.00 0.00 0.00 0.00 0.00 0.00 0.00 0.00 0.00 0.00 0.00 0.00 0.00 0.01 0.01 0.00 0.00 0.00 0.01 0.01 0.01 0.03 0.04 0.06 0.10 0.11 0.07 0.06 0.13 0.26 0.39 0.51 0.63 0.59 0.57 0.54 0.47 0.33 0.14 0.06 0.05 0.06

GEFSMW_prec_meanprecacc_030.txt.gz
Total_Precipitation_Accumulation
0.06 0.09 0.11 0.13 0.12 0.07 0.03 0.02 0.02 0.04 0.10 0.14 0.20 0.38 0.59 0.55 0.58 0.52 0.34 0.37 0.53 0.70 0.79 0.75 0.67 0.56 0.48 0.39 0.35 0.42 0.41 0.25 0.07 0.05 0.04 0.01 0.00 0.00 0.00 0.00 0.00 0.00 0.00
0.03 0.04 0.06 0.09 0.09 0.08 0.04 0.04 0.05 0.08 0.12 0.18 0.27 0.37 0.44 0.33 0.39 0.45 0.45 0.41 0.45 0.62 0.74 0.87 0.82 0.69 0.66 0.71 0.74 0.88 0.91 0.60 0.26 0.19 0.20 0.12 0.07 0.01 0.00 0.00 0.00 0.00 0.00
0.02 0.03 0.04 0.05 0.06 0.06 0.06 0.06 0.08 0.14 0.22 0.32 0.46 0.54 0.57 0.56 0.60 0.57 0.61 0.58 0.52 0.52 0.56 0.73 0.76 0.67 0.66 0.77 0.88 1.10 1.31 1.04 0.66 0.41 0.40 0.37 0.36 0.18 0.03 0.00 0.00 0.00 0.00
0.02 0.02 0.02 0.04 0.05 0.05 0.05 0.08 0.14 0.27 0.43 0.58 0.74 0.88 0.93 0.85 0.70 0.65 0.60 0.46 0.43 0.44 0.44 0.50 0.57 0.62 0.61 0.75 0.82 0.89 1.21 1.31 1.03 0.77 0.51 0.35 0.30 0.26 0.18 0.05 0.01 0.01 0.00
0.03 0.05 0.06 0.08 0.09 0.10 0.12 0.19 0.38 0.61 0.83 0.99 1.15 1.32 1.21 1.00 0.78 0.61 0.51 0.47 0.41 0.36 0.36 0.43 0.40 0.41 0.48 0.61 0.80 0.94 1.15 1.27 1.14 0.97 0.82 0.67 0.50 0.28 0.27 0.26 0.09 0.01 0.01
0.10 0.16 0.23 0.30 0.35 0.39 0.51 0.72 0.95 1.11 1.18 1.27 1.33 1.37 1.27 1.12 0.93 0.68 0.52 0.46 0.43 0.42 0.46 0.47 0.37 0.31 0.36 0.45 0.61 0.78 0.98 1.19 1.21 1.00 0.82 0.78 0.69 0.61 0.49 0.35 0.25 0.12 0.02
0.23 0.35 0.52 0.66 0.77 0.88 0.98 1.12 1.28 1.39 1.32 1.27 1.26 1.25 1.17 1.06 0.91 0.73 0.56 0.43 0.37 0.35 0.39 0.45 0.50 0.44 0.39 0.42 0.46 0.55 0.63 0.84 1.09 1.00 0.86 0.78 0.67 0.65 0.66 0.55 0.39 0.30 0.11
0.39 0.49 0.59 0.73 0.88 0.98 1.01 1.02 1.11 1.18 1.16 1.12 1.07 1.02 0.98 0.89 0.76 0.59 0.49 0.42 0.36 0.31 0.24 0.24 0.31 0.40 0.45 0.40 0.37 0.32 0.37 0.53 0.73 0.82 0.93 0.97 0.82 0.67 0.60 0.57 0.53 0.42 0.34
0.59 0.71 0.83 0.97 1.00 1.01 1.01 0.93 0.92 0.95 0.96 0.90 0.84 0.80 0.75 0.69 0.60 0.52 0.48 0.41 0.34 0.26 0.21 0.21 0.19 0.19 0.19 0.18 0.19 0.21 0.26 0.30 0.48 0.65 0.77 0.91 0.98 0.89 0.69 0.62 0.59 0.54 0.49
0.77 1.00 1.24 1.34 1.18 0.94 0.82 0.79 0.74 0.74 0.78 0.80 0.77 0.72 0.66 0.59 0.52 0.46 0.44 0.36 0.28 0.21 0.18 0.15 0.11 0.08 0.06 0.07 0.10 0.16 0.24 0.27 0.34 0.49 0.60 0.68 0.76 0.92 0.88 0.74 0.70 0.63 0.53
0.89 1.00 1.17 1.27 1.09 0.81 0.62 0.61 0.66 0.67 0.67 0.69 0.68 0.65 0.58 0.50 0.44 0.40 0.37 0.32 0.24 0.19 0.13 0.09 0.07 0.07 0.05 0.05 0.08 0.09 0.11 0.14 0.19 0.26 0.35 0.49 0.71 0.95 0.97 0.92 0.82 0.73 0.64
0.82 0.82 0.85 0.88 0.84 0.68 0.56 0.53 0.59 0.62 0.63 0.68 0.68 0.64 0.54 0.46 0.43 0.38 0.33 0.27 0.20 0.14 0.10 0.10 0.07 0.05 0.05 0.05 0.08 0.09 0.10 0.12 0.15 0.16 0.20 0.32 0.59 0.87 1.03 1.11 1.05 0.91 0.81
0.84 0.82 0.75 0.67 0.61 0.57 0.55 0.55 0.66 0.74 0.79 0.79 0.67 0.55 0.49 0.45 0.42 0.33 0.28 0.24 0.17 0.11 0.08 0.11 0.09 0.06 0.04 0.04 0.05 0.09 0.11 0.12 0.17 0.21 0.22 0.23 0.37 0.61 0.84 0.98 1.04 1.00 0.96
0.61 0.59 0.55 0.51 0.48 0.48 0.51 0.55 0.67 0.76 0.86 0.94 0.83 0.67 0.55 0.47 0.40 0.32 0.30 0.26 0.19 0.16 0.13 0.14 0.15 0.11 0.07 0.07 0.07 0.05 0.05 0.05 0.09 0.15 0.19 0.22 0.25 0.36 0.51 0.68 0.82 0.97 1.08
0.31 0.32 0.32 0.31 0.30 0.28 0.29 0.36 0.47 0.64 0.82 0.98 0.95 0.77 0.63 0.56 0.48 0.42 0.40 0.35 0.30 0.22 0.19 0.17 0.19 0.24 0.24 0.24 0.26 0.14 0.06 0.05 0.05 0.06 0.07 0.11 0.15 0.21 0.30 0.39 0.58 0.87 1.07
0.21 0.22 0.21 0.19 0.15 0.13 0.15 0.16 0.24 0.40 0.56 0.71 0.76 0.70 0.60 0.49 0.42 0.42 0.42 0.39 0.35 0.30 0.28 0.26 0.27 0.31 0.32 0.47 0.41 0.21 0.08 0.05 0.05 0.07 0.05 0.06 0.07 0.11 0.17 0.21 0.29 0.48 0.67
0.18 0.17 0.18 0.18 0.17 0.15 0.14 0.13 0.17 0.24 0.34 0.46 0.55 0.53 0.46 0.38 0.32 0.34 0.36 0.34 0.31 0.31 0.29 0.29 0.27 0.29 0.37 0.38 0.22 0.16 0.12 0.12 0.10 0.09 0.07 0.05 0.04 0.04 0.07 0.13 0.19 0.23 0.29
0.17 0.16 0.16 0.15 0.13 0.12 0.11 0.11 0.14 0.16 0.18 0.22 0.26 0.27 0.27 0.26 0.28 0.29 0.29 0.28 0.26 0.25 0.25 0.32 0.37 0.37 0.32 0.29 0.19 0.15 0.15 0.21 0.18 0.11 0.07 0.08 0.07 0.09 0.10 0.09 0.12 0.17 0.23
0.09 0.08 0.07 0.06 0.05 0.04 0.04 0.04 0.05 0.05 0.05 0.06 0.08 0.10 0.12 0.13 0.17 0.17 0.20 0.29 0.31 0.31 0.35 0.45 0.51 0.43 0.31 0.28 0.25 0.22 0.22 0.27 0.28 0.20 0.15 0.12 0.14 0.25 0.18 0.10 0.13 0.19 0.27
0.02 0.02 0.01 0.01 0.01 0.00 0.00 0.00 0.00 0.00 0.00 0.00 0.00 0.01 0.01 0.02 0.05 0.08 0.10 0.16 0.22 0.28 0.35 0.36 0.33 0.32 0.36 0.36 0.27 0.28 0.31 0.35 0.39 0.32 0.25 0.31 0.27 0.31 0.22 0.11 0.18 0.25 0.26
0.00 0.00 0.00 0.00 0.00 0.00 0.00 0.00 0.00 0.00 0.00 0.00 0.00 0.00 0.00 0.00 0.01 0.01 0.02 0.04 0.09 0.12 0.13 0.14 0.16 0.22 0.38 0.39 0.32 0.35 0.31 0.31 0.35 0.35 0.35 0.29 0.32 0.24 0.19 0.13 0.14 0.24 0.20
0.00 0.00 0.00 0.00 0.00 0.00 0.00 0.00 0.00 0.00 0.00 0.00 0.00 0.00 0.00 0.00 0.00 0.01 0.01 0.01 0.02 0.03 0.05 0.07 0.10 0.15 0.22 0.26 0.24 0.20 0.19 0.21 0.30 0.35 0.34 0.30 0.39 0.27 0.15 0.08 0.10 0.14 0.12
0.00 0.00 0.00 0.00 0.00 0.00 0.00 0.00 0.00 0.00 0.00 0.00 0.00 0.00 0.00 0.00 0.00 0.01 0.01 0.01 0.02 0.03 0.04 0.07 0.10 0.14 0.18 0.18 0.15 0.10 0.10 0.15 0.23 0.29 0.35 0.37 0.33 0.21 0.13 0.12 0.12 0.12 0.14
0.00 0.00 0.00 0.00 0.00 0.00 0.00 0.00 0.00 0.00 0.00 0.00 0.00 0.00 0.01 0.01 0.01 0.01 0.01 0.02 0.02 0.04 0.06 0.11 0.15 0.17 0.19 0.19 0.18 0.18 0.15 0.17 0.19 0.23 0.28 0.28 0.20 0.16 0.16 0.15 0.14 0.16 0.19
0.00 0.00 0.00 0.00 0.00 0.00 0.00 0.00 0.00 0.00 0.00 0.00 0.00 0.00 0.01 0.01 0.01 0.01 0.01 0.01 0.02 0.04 0.09 0.11 0.14 0.14 0.14 0.13 0.14 0.22 0.28 0.35 0.41 0.40 0.34 0.31 0.30 0.27 0.21 0.16 0.15 0.16 0.17
0.00 0.00 0.00 0.00 0.00 0.00 0.00 0.00 0.00 0.00 0.00 0.00 0.00 0.00 0.01 0.01 0.01 0.02 0.01 0.01 0.01 0.01 0.03 0.04 0.06 0.10 0.12 0.07 0.07 0.14 0.26 0.40 0.54 0.71 0.69 0.66 0.62 0.55 0.40 0.20 0.12 0.10 0.12

GEFSMW_prec_meanprecacc_036.txt.gz
Total_Precipitation_Accumulation
0.09 0.11 0.15 0.17 0.17 0.16 0.18 0.22 0.22 0.25 0.29 0.32 0.39 0.55 0.74 0.68 0.69 0.61 0.43 0.44 0.58 0.75 0.84 0.78 0.70 0.58 0.49 0.40 0.35 0.43 0.41 0.26 0.08 0.06 0.05 0.01 0.00 0.00 0.00 0.00 0.01 0.01 0.02
0.05 0.05 0.08 0.10 0.12 0.13 0.14 0.18 0.25 0.32 0.37 0.43 0.55 0.64 0.72 0.61 0.63 0.65 0.63 0.57 0.56 0.70 0.81 0.93 0.88 0.73 0.69 0.73 0.76 0.90 0.93 0.63 0.29 0.24 0.24 0.14 0.08 0.02 0.01 0.01 0.01 0.01 0.03
0.03 0.04 0.04 0.06 0.07 0.08 0.09 0.12 0.18 0.28 0.39 0.53 0.74 0.91 1.01 1.03 1.04 0.91 0.88 0.80 0.69 0.67 0.69 0.85 0.86 0.75 0.72 0.82 0.92 1.14 1.35 1.10 0.71 0.48 0.49 0.42 0.37 0.18 0.04 0.01 0.02 0.02 0.01
0.06 0.04 0.04 0.05 0.05 0.06 0.06 0.10 0.18 0.32 0.51 0.71 0.95 1.18 1.35 1.34 1.18 1.09 1.00 0.80 0.71 0.67 0.65 0.69 0.75 0.78 0.74 0.86 0.90 0.96 1.29 1.39 1.11 0.85 0.60 0.44 0.38 0.31 0.20 0.06 0.02 0.04 0.02
0.11 0.09 0.08 0.10 0.10 0.10 0.13 0.20 0.38 0.62 0.85 1.06 1.29 1.56 1.56 1.43 1.28 1.17 1.06 0.97 0.87 0.77 0.70 0.73 0.68 0.65 0.67 0.76 0.95 1.08 1.28 1.39 1.26 1.11 0.94 0.78 0.60 0.35 0.32 0.28 0.10 0.03 0.02
0.18 0.23 0.27 0.32 0.35 0.39 0.52 0.72 0.95 1.11 1.18 1.30 1.41 1.54 1.54 1.55 1.46 1.25 1.10 1.02 0.96 0.91 0.87 0.81 0.65 0.55 0.57 0.65 0.80 0.97 1.15 1.34 1.37 1.16 0.96 0.88 0.78 0.67 0.53 0.37 0.26 0.13 0.03
0.28 0.40 0.54 0.67 0.78 0.89 0.99 1.12 1.29 1.39 1.32 1.29 1.31 1.35 1.36 1.35 1.34 1.26 1.11 0.99 0.93 0.90 0.85 0.81 0.79 0.70 0.62 0.64 0.70 0.81 0.84 0.99 1.22 1.12 0.97 0.88 0.75 0.71 0.70 0.56 0.40 0.31 0.12
0.44 0.54 0.63 0.75 0.89 0.99 1.02 1.03 1.12 1.19 1.17 1.13 1.11 1.08 1.08 1.07 1.00 0.91 0.88 0.88 0.88 0.84 0.74 0.65 0.65 0.68 0.67 0.58 0.54 0.49 0.51 0.64 0.83 0.90 0.99 1.03 0.87 0.72 0.63 0.59 0.54 0.42 0.34
0.69 0.80 0.88 1.00 1.02 1.03 1.03 0.94 0.93 0.97 0.98 0.93 0.87 0.84 0.83 0.82 0.77 0.72 0.72 0.68 0.65 0.58 0.52 0.50 0.46 0.42 0.38 0.32 0.32 0.33 0.37 0.40 0.56 0.71 0.81 0.94 1.01 0.91 0.71 0.64 0.61 0.55 0.50
0.93 1.17 1.35 1.43 1.25 0.99 0.86 0.82 0.77 0.77 0.81 0.83 0.80 0.76 0.72 0.67 0.63 0.61 0.62 0.57 0.48 0.40 0.34 0.29 0.24 0.20 0.17 0.16 0.20 0.26 0.32 0.34 0.40 0.54 0.63 0.71 0.78 0.93 0.89 0.75 0.72 0.65 0.55
1.09 1.21 1.36 1.44 1.24 0.90 0.69 0.68 0.72 0.72 0.70 0.72 0.72 0.69 0.64 0.56 0.51 0.51 0.53 0.51 0.45 0.38 0.30 0.24 0.22 0.22 0.18 0.15 0.17 0.17 0.16 0.18 0.22 0.28 0.37 0.50 0.73 0.96 0.98 0.93 0.83 0.75 0.67
1.01 0.99 1.02 1.04 1.01 0.82 0.65 0.61 0.66 0.68 0.68 0.72 0.72 0.68 0.59 0.52 0.50 0.45 0.42 0.37 0.31 0.28 0.25 0.24 0.20 0.18 0.20 0.18 0.19 0.18 0.15 0.15 0.17 0.18 0.22 0.34 0.60 0.88 1.04 1.11 1.06 0.93 0.83
1.00 0.97 0.90 0.80 0.76 0.71 0.66 0.64 0.74 0.81 0.85 0.85 0.73 0.61 0.55 0.52 0.51 0.42 0.36 0.33 0.27 0.24 0.23 0.28 0.27 0.24 0.23 0.20 0.20 0.21 0.20 0.18 0.21 0.24 0.23 0.24 0.38 0.61 0.84 0.98 1.04 1.01 0.97
0.72 0.67 0.63 0.57 0.53 0.55 0.59 0.63 0.74 0.83 0.93 1.02 0.90 0.74 0.62 0.55 0.48 0.41 0.39 0.37 0.33 0.34 0.35 0.40 0.42 0.36 0.30 0.27 0.28 0.25 0.20 0.18 0.18 0.20 0.22 0.24 0.26 0.36 0.52 0.68 0.82 0.97 1.09
0.36 0.35 0.35 0.33 0.32 0.31 0.32 0.40 0.52 0.68 0.85 1.02 1.01 0.83 0.70 0.64 0.56 0.52 0.51 0.49 0.51 0.47 0.45 0.48 0.54 0.60 0.55 0.51 0.52 0.38 0.27 0.22 0.18 0.16 0.13 0.14 0.17 0.21 0.30 0.40 0.58 0.87 1.08
0.24 0.23 0.22 0.20 0.15 0.13 0.15 0.17 0.25 0.41 0.58 0.73 0.79 0.75 0.66 0.54 0.48 0.50 0.51 0.48 0.46 0.41 0.40 0.42 0.47 0.53 0.55 0.70 0.60 0.36 0.23 0.19 0.19 0.19 0.14 0.12 0.10 0.13 0.18 0.22 0.29 0.49 0.67
0.19 0.18 0.19 0.18 0.17 0.15 0.14 0.13 0.17 0.24 0.34 0.47 0.56 0.54 0.49 0.42 0.36 0.37 0.39 0.37 0.33 0.34 0.33 0.33 0.33 0.36 0.45 0.46 0.29 0.22 0.18 0.18 0.19 0.20 0.19 0.15 0.11 0.10 0.12 0.16 0.21 0.25 0.31
0.18 0.16 0.16 0.15 0.13 0.12 0.11 0.11 0.14 0.17 0.18 0.22 0.26 0.27 0.27 0.26 0.28 0.30 0.30 0.30 0.27 0.26 0.26 0.33 0.39 0.39 0.34 0.31 0.21 0.17 0.17 0.24 0.23 0.18 0.15 0.16 0.16 0.18 0.20 0.15 0.16 0.22 0.27
0.09 0.08 0.07 0.06 0.05 0.04 0.04 0.04 0.05 0.05 0.05 0.06 0.08 0.10 0.12 0.13 0.17 0.17 0.20 0.29 0.32 0.32 0.35 0.45 0.51 0.44 0.32 0.29 0.26 0.23 0.23 0.29 0.32 0.24 0.19 0.18 0.22 0.36 0.29 0.16 0.18 0.25 0.33
0.02 0.02 0.01 0.01 0.01 0.00 0.00 0.00 0.00 0.00 0.00 0.00 0.00 0.01 0.01 0.02 0.05 0.08 0.10 0.16 0.22 0.29 0.35 0.36 0.33 0.32 0.36 0.36 0.28 0.29 0.32 0.35 0.40 0.34 0.28 0.36 0.33 0.38 0.28 0.17 0.23 0.31 0.33
0.00 0.00 0.00 0.00 0.00 0.00 0.00 0.00 0.00 0.00 0.00 0.00 0.00 0.00 0.00 0.00 0.01 0.01 0.02 0.04 0.09 0.12 0.13 0.14 0.16 0.22 0.38 0.39 0.32 0.35 0.31 0.32 0.36 0.37 0.37 0.33 0.36 0.27 0.22 0.16 0.17 0.28 0.26
0.00 0.00 0.00 0.00 0.00 0.00 0.00 0.00 0.00 0.00 0.00 0.00 0.00 0.00 0.00 0.00 0.00 0.01 0.01 0.01 0.02 0.03 0.05 0.07 0.10 0.15 0.22 0.26 0.24 0.20 0.19 0.22 0.30 0.35 0.35 0.32 0.41 0.29 0.16 0.10 0.12 0.17 0.15
0.00 0.00 0.00 0.00 0.00 0.00 0.00 0.00 0.00 0.00 0.00 0.00 0.00 0.00 0.00 0.01 0.00 0.01 0.01 0.01 0.02 0.03 0.04 0.07 0.10 0.14 0.19 0.18 0.15 0.11 0.11 0.16 0.24 0.29 0.36 0.39 0.34 0.22 0.14 0.14 0.15 0.15 0.16
0.00 0.00 0.00 0.00 0.00 0.00 0.00 0.00 0.00 0.00 0.00 0.00 0.00 0.00 0.01 0.01 0.01 0.01 0.01 0.02 0.02 0.04 0.06 0.11 0.15 0.17 0.19 0.19 0.18 0.19 0.18 0.20 0.21 0.25 0.31 0.32 0.24 0.19 0.18 0.18 0.17 0.18 0.21
0.00 0.00 0.00 0.00 0.00 0.00 0.00 0.00 0.00 0.00 0.00 0.00 0.00 0.00 0.01 0.01 0.01 0.01 0.01 0.01 0.02 0.04 0.09 0.11 0.14 0.15 0.14 0.14 0.15 0.23 0.29 0.37 0.43 0.43 0.36 0.34 0.33 0.29 0.23 0.18 0.17 0.18 0.18
0.00 0.00 0.00 0.00 0.00 0.00 0.00 0.00 0.00 0.00 0.00 0.00 0.00 0.00 0.01 0.01 0.01 0.02 0.01 0.01 0.01 0.01 0.03 0.04 0.06 0.11 0.12 0.08 0.07 0.14 0.27 0.41 0.56 0.73 0.71 0.68 0.64 0.57 0.42 0.22 0.13 0.11 0.12

GEFSMW_prec_meanprecacc_042.txt.gz
Total_Precipitation_Accumulation
0.13 0.15 0.19 0.21 0.22 0.22 0.24 0.30 0.33 0.40 0.47 0.53 0.66 0.83 1.01 1.00 1.07 1.02 0.79 0.70 0.78 0.93 1.01 0.93 0.84 0.68 0.55 0.44 0.38 0.45 0.43 0.27 0.08 0.07 0.05 0.02 0.01 0.01 0.00 0.00 0.01 0.02 0.02
0.07 0.07 0.09 0.12 0.14 0.15 0.16 0.21 0.29 0.38 0.46 0.54 0.70 0.85 0.96 0.89 0.98 1.10 1.02 0.87 0.81 0.92 1.01 1.12 1.06 0.89 0.80 0.81 0.81 0.94 0.95 0.64 0.30 0.25 0.26 0.15 0.09 0.02 0.02 0.01 0.01 0.02 0.04
0.06 0.06 0.06 0.07 0.09 0.10 0.11 0.14 0.20 0.30 0.43 0.58 0.81 1.01 1.18 1.23 1.25 1.14 1.17 1.12 0.98 0.94 0.91 1.05 1.08 0.98 0.92 0.97 1.03 1.21 1.40 1.14 0.76 0.52 0.54 0.44 0.39 0.21 0.05 0.02 0.03 0.02 0.02
0.08 0.06 0.05 0.06 0.06 0.06 0.07 0.10 0.18 0.32 0.53 0.73 0.98 1.23 1.42 1.43 1.29 1.30 1.28 1.10 0.97 0.92 0.89 0.93 1.01 1.05 0.99 1.06 1.06 1.08 1.39 1.49 1.20 0.95 0.69 0.51 0.42 0.34 0.22 0.07 0.03 0.05 0.03
0.13 0.11 0.09 0.11 0.11 0.11 0.13 0.20 0.39 0.62 0.86 1.06 1.30 1.58 1.59 1.47 1.37 1.33 1.29 1.20 1.12 1.05 1.00 1.04 1.01 0.97 0.97 1.03 1.19 1.28 1.46 1.56 1.42 1.24 1.07 0.90 0.71 0.44 0.38 0.32 0.12 0.04 0.03
0.21 0.25 0.29 0.33 0.36 0.40 0.52 0.73 0.96 1.12 1.19 1.30 1.42 1.55 1.55 1.57 1.51 1.31 1.21 1.17 1.17 1.18 1.18 1.16 1.02 0.91 0.91 0.96 1.09 1.24 1.39 1.56 1.57 1.33 1.10 1.01 0.90 0.79 0.63 0.44 0.30 0.15 0.04
0.32 0.43 0.58 0.69 0.79 0.90 1.00 1.14 1.31 1.41 1.34 1.30 1.32 1.36 1.37 1.36 1.36 1.30 1.16 1.08 1.07 1.08 1.10 1.14 1.17 1.11 1.04 1.04 1.08 1.15 1.13 1.24 1.42 1.28 1.11 0.99 0.84 0.80 0.78 0.63 0.45 0.33 0.13
0.50 0.60 0.69 0.79 0.92 1.02 1.05 1.06 1.15 1.22 1.19 1.15 1.13 1.09 1.10 1.08 1.02 0.94 0.93 0.96 0.98 0.98 0.94 0.92 0.97 1.05 1.08 1.00 0.93 0.83 0.80 0.88 1.04 1.07 1.12 1.13 0.95 0.79 0.70 0.64 0.57 0.44 0.35
0.77 0.90 0.99 1.09 1.09 1.08 1.08 0.98 0.98 1.01 1.01 0.96 0.89 0.86 0.84 0.84 0.80 0.75 0.76 0.74 0.73 0.69 0.66 0.67 0.67 0.71 0.71 0.65 0.64 0.65 0.66 0.64 0.75 0.87 0.94 1.05 1.09 0.97 0.76 0.68 0.63 0.56 0.50
1.01 1.28 1.50 1.61 1.40 1.10 0.97 0.91 0.83 0.83 0.86 0.86 0.83 0.79 0.74 0.69 0.66 0.65 0.66 0.63 0.55 0.49 0.47 0.45 0.41 0.38 0.36 0.36 0.40 0.44 0.49 0.50 0.54 0.66 0.73 0.79 0.84 0.98 0.93 0.79 0.74 0.66 0.56
1.15 1.29 1.47 1.60 1.46 1.11 0.86 0.82 0.82 0.78 0.75 0.76 0.75 0.72 0.67 0.59 0.55 0.55 0.56 0.55 0.50 0.46 0.41 0.38 0.37 0.39 0.35 0.32 0.34 0.32 0.29 0.29 0.32 0.38 0.44 0.55 0.77 1.00 1.02 0.96 0.85 0.77 0.67
1.08 1.05 1.10 1.14 1.13 0.97 0.79 0.73 0.78 0.78 0.76 0.78 0.76 0.72 0.63 0.56 0.53 0.49 0.45 0.40 0.36 0.33 0.32 0.34 0.32 0.30 0.32 0.31 0.33 0.33 0.29 0.26 0.26 0.26 0.29 0.40 0.65 0.92 1.07 1.14 1.07 0.94 0.83
1.05 1.01 0.93 0.85 0.85 0.82 0.75 0.72 0.82 0.89 0.93 0.91 0.77 0.65 0.59 0.56 0.55 0.45 0.39 0.37 0.31 0.29 0.27 0.34 0.34 0.33 0.34 0.32 0.32 0.33 0.32 0.29 0.30 0.32 0.30 0.30 0.42 0.65 0.86 1.00 1.06 1.02 0.98
0.75 0.69 0.64 0.59 0.58 0.61 0.65 0.69 0.79 0.86 0.97 1.05 0.94 0.77 0.65 0.58 0.52 0.45 0.43 0.41 0.38 0.39 0.42 0.47 0.49 0.42 0.37 0.36 0.37 0.34 0.30 0.27 0.27 0.28 0.28 0.29 0.29 0.38 0.53 0.69 0.83 0.98 1.10
0.37 0.36 0.36 0.34 0.32 0.32 0.34 0.42 0.54 0.69 0.87 1.05 1.03 0.85 0.73 0.65 0.58 0.54 0.54 0.52 0.55 0.51 0.49 0.54 0.61 0.67 0.62 0.57 0.60 0.48 0.38 0.32 0.27 0.25 0.20 0.19 0.20 0.23 0.31 0.40 0.59 0.87 1.08
0.25 0.24 0.22 0.20 0.16 0.13 0.15 0.17 0.25 0.42 0.58 0.74 0.80 0.76 0.66 0.55 0.49 0.51 0.52 0.49 0.47 0.43 0.43 0.45 0.50 0.58 0.61 0.76 0.66 0.43 0.32 0.28 0.28 0.28 0.23 0.18 0.14 0.15 0.19 0.23 0.30 0.49 0.67
0.19 0.18 0.19 0.18 0.17 0.15 0.14 0.13 0.17 0.24 0.34 0.47 0.56 0.54 0.49 0.42 0.36 0.38 0.40 0.38 0.34 0.35 0.35 0.34 0.34 0.38 0.48 0.50 0.34 0.27 0.23 0.24 0.26 0.29 0.28 0.21 0.16 0.14 0.14 0.17 0.21 0.25 0.31
0.18 0.16 0.16 0.15 0.13 0.12 0.11 0.11 0.14 0.17 0.18 0.22 0.26 0.27 0.27 0.26 0.28 0.30 0.30 0.30 0.28 0.27 0.27 0.34 0.40 0.39 0.36 0.34 0.24 0.20 0.20 0.29 0.29 0.24 0.21 0.21 0.21 0.22 0.23 0.17 0.18 0.23 0.28
0.09 0.08 0.07 0.06 0.05 0.04 0.04 0.04 0.05 0.05 0.05 0.06 0.08 0.10 0.12 0.13 0.17 0.17 0.20 0.29 0.32 0.32 0.35 0.45 0.51 0.44 0.33 0.31 0.28 0.25 0.25 0.33 0.36 0.29 0.24 0.23 0.26 0.40 0.33 0.19 0.21 0.27 0.34
0.02 0.02 0.01 0.01 0.01 0.00 0.00 0.00 0.00 0.00 0.00 0.00 0.00 0.01 0.01 0.02 0.05 0.08 0.10 0.16 0.22 0.29 0.35 0.36 0.33 0.32 0.36 0.37 0.29 0.31 0.33 0.38 0.44 0.38 0.33 0.41 0.37 0.41 0.31 0.19 0.26 0.34 0.34
0.00 0.00 0.00 0.00 0.00 0.00 0.00 0.00 0.00 0.00 0.00 0.00 0.00 0.00 0.00 0.00 0.01 0.01 0.02 0.04 0.09 0.12 0.13 0.14 0.16 0.22 0.38 0.40 0.34 0.37 0.33 0.34 0.39 0.41 0.41 0.36 0.39 0.30 0.24 0.19 0.19 0.31 0.28
0.00 0.00 0.00 0.00 0.00 0.00 0.00 0.00 0.00 0.00 0.00 0.00 0.00 0.00 0.00 0.00 0.00 0.01 0.01 0.01 0.02 0.03 0.05 0.07 0.10 0.15 0.22 0.26 0.24 0.22 0.21 0.24 0.33 0.38 0.38 0.34 0.44 0.32 0.19 0.13 0.16 0.22 0.21
0.00 0.00 0.00 0.00 0.00 0.00 0.00 0.00 0.00 0.00 0.00 0.00 0.00 0.00 0.00 0.01 0.00 0.01 0.01 0.01 0.02 0.04 0.04 0.07 0.11 0.14 0.19 0.18 0.15 0.11 0.12 0.18 0.26 0.31 0.38 0.41 0.36 0.24 0.16 0.17 0.19 0.19 0.19
0.00 0.00 0.00 0.00 0.00 0.00 0.00 0.00 0.00 0.00 0.00 0.00 0.00 0.00 0.01 0.01 0.01 0.01 0.01 0.02 0.02 0.04 0.07 0.12 0.16 0.17 0.20 0.19 0.19 0.20 0.19 0.21 0.22 0.26 0.32 0.33 0.26 0.21 0.20 0.21 0.20 0.21 0.24
0.00 0.00 0.00 0.00 0.00 0.00 0.00 0.00 0.00 0.00 0.00 0.00 0.00 0.00 0.01 0.01 0.01 0.01 0.01 0.01 0.02 0.04 0.09 0.12 0.15 0.15 0.15 0.14 0.15 0.24 0.30 0.38 0.45 0.44 0.37 0.35 0.34 0.30 0.24 0.19 0.18 0.19 0.20
0.00 0.00 0.00 0.00 0.00 0.00 0.00 0.00 0.00 0.00 0.00 0.00 0.00 0.00 0.01 0.01 0.01 0.02 0.01 0.01 0.01 0.01 0.04 0.05 0.07 0.11 0.12 0.08 0.08 0.15 0.28 0.42 0.57 0.74 0.72 0.69 0.65 0.58 0.42 0.23 0.13 0.12 0.13

GEFSMW_prec_meanprecacc_048.txt.gz
Total_Precipitation_Accumulation
0.13 0.15 0.19 0.21 0.22 0.22 0.25 0.30 0.34 0.41 0.50 0.57 0.71 0.93 1.18 1.26 1.33 1.25 1.02 0.93 1.00 1.14 1.22 1.13 1.04 0.85 0.67 0.55 0.46 0.49 0.46 0.29 0.10 0.09 0.08 0.03 0.01 0.01 0.01 0.01 0.01 0.02 0.02
0.07 0.07 0.10 0.13 0.14 0.15 0.16 0.22 0.29 0.39 0.47 0.56 0.73 0.89 1.03 1.01 1.15 1.27 1.20 1.07 1.05 1.16 1.23 1.33 1.24 1.04 0.95 0.97 0.93 1.02 1.03 0.68 0.32 0.29 0.32 0.20 0.12 0.04 0.02 0.01 0.01 0.02 0.04
0.06 0.06 0.06 0.08 0.09 0.10 0.11 0.15 0.20 0.31 0.44 0.59 0.82 1.03 1.22 1.28 1.32 1.23 1.28 1.25 1.15 1.16 1.20 1.30 1.32 1.18 1.11 1.14 1.18 1.33 1.52 1.23 0.81 0.56 0.59 0.49 0.44 0.26 0.07 0.02 0.03 0.03 0.03
0.08 0.06 0.06 0.07 0.07 0.07 0.08 0.11 0.19 0.33 0.53 0.74 0.99 1.24 1.44 1.46 1.34 1.37 1.38 1.24 1.13 1.08 1.10 1.18 1.25 1.27 1.19 1.24 1.23 1.20 1.48 1.59 1.28 1.02 0.75 0.57 0.48 0.41 0.28 0.10 0.04 0.05 0.04
0.13 0.11 0.10 0.12 0.12 0.13 0.15 0.21 0.40 0.64 0.87 1.08 1.32 1.60 1.61 1.50 1.40 1.39 1.35 1.27 1.22 1.18 1.16 1.24 1.25 1.19 1.18 1.22 1.39 1.44 1.57 1.65 1.52 1.34 1.16 0.99 0.78 0.50 0.46 0.40 0.18 0.07 0.04
0.21 0.26 0.30 0.36 0.40 0.42 0.55 0.75 1.00 1.17 1.24 1.35 1.46 1.58 1.58 1.59 1.53 1.34 1.25 1.22 1.23 1.26 1.30 1.32 1.24 1.13 1.11 1.17 1.31 1.46 1.56 1.70 1.69 1.44 1.22 1.13 1.01 0.90 0.75 0.56 0.42 0.24 0.08
0.32 0.44 0.59 0.72 0.83 0.93 1.04 1.18 1.35 1.47 1.40 1.35 1.36 1.41 1.42 1.40 1.39 1.33 1.20 1.11 1.11 1.13 1.16 1.24 1.32 1.30 1.24 1.27 1.31 1.40 1.36 1.46 1.63 1.47 1.26 1.13 0.96 0.91 0.90 0.75 0.56 0.42 0.18
0.51 0.62 0.71 0.82 0.98 1.09 1.14 1.14 1.23 1.31 1.26 1.22 1.19 1.16 1.16 1.14 1.07 0.98 0.96 0.99 1.02 1.02 0.99 0.99 1.07 1.20 1.24 1.15 1.10 1.03 1.01 1.10 1.25 1.26 1.30 1.29 1.09 0.91 0.80 0.74 0.66 0.52 0.41
0.79 0.93 1.03 1.16 1.19 1.20 1.24 1.16 1.12 1.15 1.14 1.06 0.97 0.96 0.94 0.90 0.86 0.82 0.81 0.78 0.77 0.72 0.70 0.71 0.72 0.77 0.80 0.75 0.75 0.78 0.80 0.81 0.94 1.06 1.13 1.22 1.26 1.13 0.92 0.81 0.72 0.64 0.57
1.03 1.32 1.56 1.73 1.55 1.26 1.14 1.08 0.98 0.96 1.03 1.01 0.91 0.87 0.85 0.80 0.77 0.75 0.73 0.68 0.60 0.54 0.52 0.50 0.46 0.44 0.42 0.43 0.49 0.55 0.61 0.62 0.70 0.84 0.91 0.95 1.01 1.14 1.09 0.93 0.85 0.74 0.62
1.18 1.34 1.53 1.70 1.58 1.26 1.02 1.02 1.01 0.94 0.90 0.89 0.85 0.81 0.75 0.66 0.64 0.63 0.63 0.61 0.55 0.52 0.47 0.43 0.42 0.46 0.44 0.40 0.42 0.41 0.40 0.41 0.45 0.52 0.60 0.71 0.90 1.13 1.16 1.09 0.96 0.86 0.75
1.10 1.08 1.13 1.19 1.20 1.05 0.86 0.81 0.92 0.93 0.88 0.86 0.84 0.79 0.69 0.61 0.59 0.56 0.50 0.44 0.39 0.36 0.36 0.38 0.36 0.36 0.39 0.39 0.42 0.43 0.41 0.39 0.38 0.38 0.42 0.54 0.78 1.04 1.18 1.24 1.17 1.03 0.90
1.06 1.03 0.95 0.88 0.90 0.87 0.79 0.75 0.86 0.97 1.01 0.97 0.82 0.69 0.63 0.59 0.58 0.48 0.43 0.41 0.34 0.31 0.30 0.37 0.37 0.37 0.39 0.39 0.41 0.42 0.42 0.42 0.43 0.45 0.45 0.45 0.57 0.78 0.97 1.09 1.14 1.09 1.03
0.76 0.70 0.65 0.60 0.59 0.63 0.67 0.72 0.82 0.89 1.00 1.09 0.98 0.82 0.71 0.63 0.57 0.48 0.46 0.43 0.40 0.40 0.44 0.50 0.52 0.46 0.41 0.41 0.46 0.44 0.41 0.40 0.40 0.41 0.41 0.40 0.40 0.50 0.64 0.79 0.91 1.03 1.14
0.38 0.37 0.36 0.34 0.33 0.33 0.34 0.43 0.55 0.70 0.88 1.07 1.05 0.89 0.82 0.75 0.62 0.56 0.56 0.54 0.57 0.53 0.51 0.56 0.64 0.71 0.66 0.62 0.65 0.55 0.47 0.43 0.39 0.36 0.31 0.30 0.30 0.31 0.38 0.46 0.65 0.92 1.12
0.25 0.24 0.22 0.20 0.16 0.14 0.16 0.17 0.25 0.42 0.59 0.74 0.81 0.76 0.68 0.59 0.56 0.55 0.53 0.50 0.48 0.44 0.44 0.46 0.52 0.61 0.64 0.81 0.72 0.50 0.39 0.38 0.39 0.40 0.34 0.29 0.23 0.21 0.24 0.28 0.34 0.54 0.71
0.19 0.18 0.19 0.18 0.17 0.16 0.14 0.14 0.17 0.24 0.35 0.47 0.56 0.54 0.49 0.43 0.39 0.43 0.44 0.40 0.36 0.38 0.36 0.34 0.35 0.40 0.54 0.58 0.40 0.35 0.31 0.33 0.37 0.40 0.40 0.35 0.27 0.24 0.25 0.24 0.24 0.27 0.33
0.18 0.16 0.16 0.15 0.13 0.12 0.11 0.11 0.14 0.17 0.18 0.22 0.26 0.27 0.27 0.27 0.28 0.31 0.31 0.31 0.29 0.28 0.28 0.34 0.40 0.42 0.42 0.42 0.32 0.28 0.28 0.38 0.40 0.37 0.33 0.35 0.33 0.31 0.32 0.24 0.25 0.27 0.29
0.09 0.08 0.07 0.06 0.05 0.04 0.04 0.04 0.05 0.05 0.05 0.06 0.08 0.10 0.12 0.14 0.17 0.17 0.21 0.29 0.32 0.32 0.35 0.46 0.52 0.45 0.35 0.34 0.32 0.31 0.32 0.40 0.44 0.40 0.34 0.34 0.35 0.48 0.43 0.29 0.31 0.33 0.36
0.02 0.02 0.01 0.01 0.01 0.00 0.00 0.00 0.00 0.00 0.00 0.00 0.00 0.01 0.01 0.02 0.05 0.08 0.10 0.16 0.23 0.29 0.35 0.36 0.33 0.32 0.37 0.40 0.33 0.36 0.39 0.44 0.50 0.47 0.41 0.51 0.46 0.49 0.40 0.28 0.39 0.44 0.38
0.00 0.00 0.00 0.00 0.00 0.00 0.00 0.00 0.00 0.00 0.00 0.00 0.00 0.00 0.00 0.00 0.01 0.02 0.02 0.05 0.09 0.12 0.13 0.15 0.17 0.23 0.38 0.42 0.38 0.42 0.38 0.41 0.47 0.50 0.48 0.42 0.47 0.37 0.31 0.27 0.28 0.39 0.33
0.00 0.00 0.00 0.00 0.00 0.00 0.00 0.00 0.00 0.00 0.00 0.00 0.00 0.00 0.00 0.00 0.00 0.01 0.01 0.01 0.02 0.04 0.05 0.08 0.10 0.16 0.23 0.28 0.27 0.26 0.27 0.31 0.39 0.45 0.44 0.38 0.50 0.38 0.24 0.18 0.20 0.27 0.27
0.00 0.00 0.00 0.00 0.00 0.00 0.00 0.00 0.00 0.00 0.00 0.00 0.00 0.00 0.00 0.01 0.00 0.01 0.01 0.01 0.02 0.04 0.05 0.07 0.11 0.15 0.19 0.19 0.18 0.17 0.19 0.24 0.31 0.36 0.44 0.45 0.41 0.28 0.19 0.21 0.24 0.25 0.26
0.00 0.00 0.00 0.00 0.00 0.00 0.00 0.00 0.00 0.00 0.00 0.00 0.00 0.00 0.01 0.01 0.01 0.01 0.01 0.02 0.02 0.04 0.07 0.12 0.16 0.18 0.20 0.20 0.20 0.23 0.22 0.24 0.26 0.30 0.36 0.37 0.29 0.25 0.23 0.23 0.23 0.24 0.28
0.00 0.00 0.00 0.00 0.00 0.00 0.00 0.00 0.00 0.00 0.00 0.00 0.00 0.00 0.01 0.01 0.01 0.01 0.01 0.02 0.02 0.04 0.09 0.12 0.15 0.15 0.15 0.15 0.16 0.25 0.31 0.40 0.46 0.46 0.39 0.36 0.36 0.32 0.26 0.21 0.19 0.20 0.22
0.00 0.00 0.00 0.00 0.00 0.00 0.00 0.00 0.00 0.00 0.00 0.00 0.00 0.00 0.01 0.01 0.01 0.02 0.01 0.01 0.01 0.02 0.04 0.05 0.07 0.11 0.13 0.08 0.08 0.15 0.28 0.43 0.58 0.75 0.73 0.70 0.66 0.59 0.43 0.23 0.14 0.12 0.14